GW3498 Weather Reports


Display with metric or nautical units.
time (UTC)temp
F
wind
direction
speed
MPH
gust
MPH
rain 1hr
in
rain 24hr
in
rain mn
in
humidity
%
barometer
mb
20260902222531 74 0.0 0.0 0.00 0.00 0.00 60 1018.1
20260902221525 74 0.0 0.0 0.00 0.00 0.00 60 1018.2
20260902220519 74 0.0 0.0 0.00 0.00 0.00 61 1018.2
20260902215533 74 0.0 0.0 0.00 0.00 0.00 60 1018.2
20260902214528 74 0.0 0.0 0.00 0.00 0.00 60 1018.1
20260902213644 74 39 0.0 1.0 0.00 0.00 0.00 59 1018.3
20260902212542 75 0.0 0.0 0.00 0.00 0.00 59 1018.1
20260902211535 76 20 0.0 1.0 0.00 0.00 0.00 56 1018.1
20260902210530 77 346 1.0 2.0 0.00 0.00 0.00 57 1018.2
20260902205545 77 352 2.0 6.0 0.00 0.00 0.00 57 1018.3
20260902204521 77 353 2.0 3.0 0.00 0.00 0.00 56 1018.3
20260902203516 77 352 2.0 3.0 0.00 0.00 0.00 57 1018.4
20260902202532 76 355 2.0 3.0 0.00 0.00 0.00 58 1018.3
20260902201527 75 70 0.0 1.0 0.00 0.00 0.00 60 1018.3
20260902200523 76 0.0 0.0 0.00 0.00 0.00 59 1018.4
20260902195520 77 157 0.0 1.0 0.00 0.00 0.00 57 1018.4
20260902194533 77 7 1.0 3.0 0.00 0.00 0.00 56 1018.3
20260902193529 78 355 1.0 2.0 0.00 0.00 0.00 56 1018.1
20260902192524 78 10 1.0 3.0 0.00 0.00 0.00 56 1018.3
20260902191520 78 29 0.0 2.0 0.00 0.00 0.00 57 1018.1
20260902190535 78 27 1.0 2.0 0.00 0.00 0.00 58 1018.1
20260902185529 78 341 1.0 4.0 0.00 0.00 0.00 59 1018.2
20260902184543 78 26 1.0 2.0 0.00 0.00 0.00 60 1018.3
20260902183559 78 313 1.0 2.0 0.00 0.00 0.00 61 1018.0
20260902182535 79 5 2.0 4.0 0.00 0.00 0.00 62 1017.8
20260902181529 79 11 2.0 4.0 0.00 0.00 0.00 62 1017.7
20260902180523 79 354 2.0 4.0 0.00 0.00 0.00 62 1017.7
20260902175518 80 16 2.0 7.0 0.00 0.00 0.00 61 1017.7
20260902174613 80 336 2.0 6.0 0.00 0.00 0.00 60 1017.7
20260902173547 81 335 3.0 7.0 0.00 0.00 0.00 60 1017.8
20260902172528 81 357 2.0 4.0 0.00 0.00 0.00 58 1017.6
20260902171518 82 342 2.0 7.0 0.00 0.00 0.00 57 1017.5
20260902170532 83 350 3.0 8.0 0.00 0.00 0.00 56 1017.5
20260902165529 84 272 1.0 6.0 0.00 0.00 0.00 55 1017.7
20260902164521 84 18 3.0 8.0 0.00 0.00 0.00 53 1017.9
20260902163517 84 9 1.0 4.0 0.00 0.00 0.00 52 1017.7
20260902162614 85 15 1.0 4.0 0.00 0.00 0.00 49 1017.5
20260902161526 86 206 2.0 4.0 0.00 0.00 0.00 44 1017.5
20260902160522 86 198 1.0 4.0 0.00 0.00 0.00 44 1017.4
20260902155535 88 252 2.0 6.0 0.00 0.00 0.00 43 1017.4
20260902154550 89 304 1.0 6.0 0.00 0.00 0.00 42 1017.4
20260902153525 89 204 1.0 6.0 0.00 0.00 0.00 40 1017.4
20260902152520 89 245 1.0 2.0 0.00 0.00 0.00 39 1017.6
20260902151533 89 193 2.0 6.0 0.00 0.00 0.00 38 1017.7
20260902150528 90 348 2.0 6.0 0.00 0.00 0.00 39 1017.8
20260902145524 90 250 1.0 4.0 0.00 0.00 0.00 38 1017.7
20260902144517 90 221 2.0 3.0 0.00 0.00 0.00 36 1017.7
20260902143532 90 269 2.0 8.0 0.00 0.00 0.00 36 1017.8
20260902142527 93 219 2.0 6.0 0.00 0.00 0.00 34 1017.7
20260902141521 93 122 2.0 4.0 0.00 0.00 0.00 31 1017.8
20260902140536 93 337 2.0 4.0 0.00 0.00 0.00 26 1017.8
20260902135531 93 232 2.0 4.0 0.00 0.00 0.00 25 1017.8
20260902134525 92 310 1.0 4.0 0.00 0.00 0.00 24 1018.0
20260902133519 94 264 1.0 3.0 0.00 0.00 0.00 23 1018.1
20260902132534 93 278 1.0 4.0 0.00 0.00 0.00 23 1018.2
20260902131528 92 219 2.0 4.0 0.00 0.00 0.00 24 1018.3
20260902130525 93 230 2.0 4.0 0.00 0.00 0.00 23 1018.3
20260902125519 93 343 2.0 6.0 0.00 0.00 0.00 24 1018.5
20260902124552 93 241 1.0 3.0 0.00 0.00 0.00 21 1018.6
20260902123546 93 238 1.0 3.0 0.00 0.00 0.00 23 1018.5
20260902122520 93 235 2.0 4.0 0.00 0.00 0.00 26 1018.7
20260902121555 92 235 1.0 4.0 0.00 0.00 0.00 26 1018.6
20260902120550 91 241 1.0 3.0 0.00 0.00 0.00 27 1018.9
20260902115524 91 232 2.0 6.0 0.00 0.00 0.00 30 1018.8
20260902114519 91 251 2.0 7.0 0.00 0.00 0.00 31 1018.9
20260902113534 91 245 1.0 3.0 0.00 0.00 0.00 31 1019.1
20260902112528 91 216 1.0 2.0 0.00 0.00 0.00 31 1019.1
20260902111523 90 334 2.0 4.0 0.00 0.00 0.00 32 1019.1
20260902110518 90 249 1.0 4.0 0.00 0.00 0.00 32 1019.2
20260902105532 91 254 1.0 4.0 0.00 0.00 0.00 32 1019.2
20260902104527 90 332 1.0 3.0 0.00 0.00 0.00 34 1019.3
20260902103542 88 196 2.0 6.0 0.00 0.00 0.00 34 1019.4
20260902102536 90 213 2.0 6.0 0.00 0.00 0.00 33 1019.4
20260902101555 90 219 2.0 6.0 0.00 0.00 0.00 33 1019.5
20260902100524 89 233 2.0 6.0 0.00 0.00 0.00 33 1019.6
20260902095519 91 220 0.0 1.0 0.00 0.00 0.00 31 1019.6
20260902094534 89 196 1.0 3.0 0.00 0.00 0.00 37 1019.6
20260902093528 88 179 1.0 3.0 0.00 0.00 0.00 36 1019.6
20260902092522 89 203 1.0 2.0 0.00 0.00 0.00 35 1019.6
20260902091517 87 172 1.0 2.0 0.00 0.00 0.00 38 1019.6
20260902090531 86 184 0.0 2.0 0.00 0.00 0.00 39 1019.6
20260902085526 88 184 1.0 3.0 0.00 0.00 0.00 40 1019.5
20260902084520 87 130 0.0 1.0 0.00 0.00 0.00 39 1019.5
20260902083534 86 105 0.0 1.0 0.00 0.00 0.00 39 1019.5
20260902082531 85 168 0.0 2.0 0.00 0.00 0.00 41 1019.5
20260902081525 85 179 0.0 1.0 0.00 0.00 0.00 42 1019.4
20260902080519 84 184 0.0 1.0 0.00 0.00 0.00 41 1019.4
20260902075532 83 143 0.0 1.0 0.00 0.00 0.00 45 1019.3
20260902074527 82 356 0.0 1.0 0.00 0.00 0.00 48 1019.3
20260902073522 79 186 0.0 1.0 0.00 0.00 0.00 53 1019.1
20260902072517 74 201 0.0 2.0 0.00 0.00 0.00 60 1019.0
20260902071532 73 167 0.0 1.0 0.00 0.00 0.00 63 1018.9
20260902070527 73 0.0 0.0 0.00 0.00 0.00 65 1019.0
20260902065521 73 0.0 0.0 0.00 0.00 0.00 64 1018.8
20260902064536 73 0.0 0.0 0.00 0.00 0.00 63 1018.7
20260902063530 73 0.0 0.0 0.00 0.00 0.00 62 1018.7
20260902062524 73 190 0.0 1.0 0.00 0.00 0.00 63 1018.5
20260902061520 73 0.0 0.0 0.00 0.00 0.00 61 1018.5
20260902060534 72 0.0 0.0 0.00 0.00 0.00 58 1018.5
20260902055549 73 182 0.0 1.0 0.00 0.00 0.00 60 1018.4
20260902054524 73 0.0 0.0 0.00 0.00 0.00 56 1018.4
20260902053518 73 36 0.0 1.0 0.00 0.00 0.00 55 1018.5
20260902052533 72 0.0 0.0 0.00 0.00 0.00 54 1018.5
20260902051528 71 34 0.0 1.0 0.00 0.00 0.00 55 1018.4
20260902050522 71 0.0 0.0 0.00 0.00 0.00 55 1018.5
20260902045517 71 21 0.0 1.0 0.00 0.00 0.00 56 1018.5
20260902044532 71 21 0.0 1.0 0.00 0.00 0.00 57 1018.6
20260902043526 70 42 0.0 1.0 0.00 0.00 0.00 55 1018.6
20260902042521 71 0.0 0.0 0.00 0.00 0.00 55 1018.5
20260902041535 72 54 0.0 1.0 0.00 0.00 0.00 52 1018.3
20260902040530 71 0.0 0.0 0.00 0.00 0.00 52 1018.3
20260902035544 71 0.0 0.0 0.00 0.00 0.00 54 1018.2
20260902034518 72 0.0 0.0 0.00 0.00 0.00 53 1018.1
20260902033533 73 56 0.0 1.0 0.00 0.00 0.00 50 1018.1
20260902032528 72 0.0 0.0 0.00 0.00 0.00 57 1018.1
20260902031521 72 37 0.0 1.0 0.00 0.00 0.00 58 1018.2
20260902030516 72 0.0 0.0 0.00 0.00 0.00 54 1018.2
20260902025531 74 31 1.0 2.0 0.00 0.00 0.00 51 1018.1
20260902024525 73 27 0.0 1.0 0.00 0.00 0.00 55 1018.2
20260902023519 74 45 0.0 1.0 0.00 0.00 0.00 56 1018.0
20260902022534 74 35 1.0 2.0 0.00 0.00 0.00 54 1018.0
20260902021528 73 32 0.0 1.0 0.00 0.00 0.00 52 1018.0
20260902020524 72 355 0.0 1.0 0.00 0.00 0.00 49 1018.0
20260902015539 73 0.0 0.0 0.00 0.00 0.00 47 1018.0
20260902014534 73 63 0.0 1.0 0.00 0.00 0.00 46 1018.0
20260902013527 73 67 0.0 1.0 0.00 0.00 0.00 44 1018.0
20260902012522 73 0.0 0.0 0.00 0.00 0.00 46 1018.1
20260902011517 73 30 0.0 1.0 0.00 0.00 0.00 46 1018.0
20260902010533 73 0.0 0.0 0.00 0.00 0.00 47 1018.1
20260902005546 75 32 0.0 2.0 0.00 0.00 0.00 48 1018.2
20260902004520 73 61 0.0 1.0 0.00 0.00 0.00 50 1018.3
20260902003535 73 57 0.0 1.0 0.00 0.00 0.00 51 1018.3
20260902002530 73 53 0.0 1.0 0.00 0.00 0.00 57 1018.1
20260902001523 74 38 0.0 1.0 0.00 0.00 0.00 57 1018.2
20260902000517 74 0.0 0.0 0.00 0.00 0.00 57 1018.4
20260901235532 74 29 0.0 1.0 0.00 0.00 0.00 57 1018.4
20260901234527 75 53 1.0 2.0 0.00 0.00 0.00 57 1018.5
20260901233523 74 44 0.0 1.0 0.00 0.00 0.00 54 1018.5
20260901232517 75 53 0.0 1.0 0.00 0.00 0.00 50 1018.4
20260901231531 75 38 0.0 1.0 0.00 0.00 0.00 53 1018.5
20260901230525 74 49 0.0 1.0 0.00 0.00 0.00 56 1018.4
20260901225522 74 68 0.0 1.0 0.00 0.00 0.00 57 1018.4
20260901224535 74 0.0 0.0 0.00 0.00 0.00 57 1018.4
20260901223549 74 46 0.0 1.0 0.00 0.00 0.00 61 1018.4